Overview Statistics Trail Chart Weather Telemetry Raw packets
 

This is the latest recevied weather packets stored in our database for station/object IW1QLH-13. If no packets are shown the sender has not sent any weather packets the latest 10 day(s).

<< 2 3 4 5 6 7 8 >>
Time Temp. Humidity Pressure Rain* Wind** Luminosity Snow
1788609460 30° C 11% - - - 943 W/m² -
1788608849 30.56° C 11% - - - 643 W/m² -
1788608237 30° C 11% - - - 1086 W/m² -
1788607660 30° C 11% - - - 715 W/m² -
1788607013 30.56° C 11% - - - 429 W/m² -
1788606402 30.56° C 11% - - - 1001 W/m² -
1788605790 28.89° C 11% - - - 400 W/m² -
1788605178 27.78° C 11% - - - 343 W/m² -
1788604567 28.89° C 11% - - - 414 W/m² -
1788603955 27.78° C 11% - - - 371 W/m² -
1788603344 27.78° C 11% - - - 271 W/m² -
1788602733 26.67° C 11% - - - 271 W/m² -
1788602121 26.67° C 11% - - - 157 W/m² -
1788601510 26.67° C 11% - - - 171 W/m² -
1788600898 26.67° C 11% - - - 157 W/m² -
1788600286 26.67° C 11% - - - 143 W/m² -
1788599675 26.67° C 11% - - - 128 W/m² -
1788599063 25.56° C 11% - - - 128 W/m² -
1788598451 25.56° C 11% - - - 128 W/m² -
1788597837 25.56° C 11% - - - 100 W/m² -
1788597224 25.56° C 11% - - - 100 W/m² -
1788593434 25° C 11% - - - 14 W/m² -
1788592824 25° C 11% - - - 42 W/m² -
1788592212 25° C 11% - - - 28 W/m² -
1788591601 25° C 11% - - - 28 W/m² -

* Rain since midnight (hover to see other rain measurements)
** Current wind speed in m/s (hover to see current wind gust speed)